Sigfox identifier Datetime Temperature Humidity SNR
003C21F6 2018-10-09 09:28:28 20.5 40 9.9
003C21F6 2018-10-09 08:21:45 20.7 39 9.7
003C21F6 2018-10-09 07:14:58 20.7 39 9.7
003C21F6 2018-10-09 06:08:07 20.7 39 9.4
003C21F6 2018-10-09 05:01:22 20.7 39 9.5
003C21F6 2018-10-09 01:41:01 20.5 39 9.4
003C21F6 2018-10-09 00:34:15 20.6 39 9.4
003C21F6 2018-10-08 22:20:41 20.5 39 9.5
003C21F6 2018-10-08 21:13:53 20.5 39 9.7
003C21F6 2018-10-08 20:07:04 20.5 39 9.7
003C21F6 2018-10-08 19:00:18 20.5 39 9.7
003C21F6 2018-10-08 17:53:34 20.4 39 9.7
003C21F6 2018-10-08 16:46:43 20.3 39 9.9
003C21F6 2018-10-08 11:13:02 20.3 39 9.8
003C21F6 2018-10-08 10:06:15 20.3 39 9.8
003C21F6 2018-10-08 04:32:18 20.5 39 9.9
003C21F6 2018-10-08 02:18:46 20.5 39 10.2
003C21F6 2018-10-08 01:12:01 20.6 39 10.2
003C21F6 2018-10-07 18:31:23 20.5 39 10.4
003C21F6 2018-10-07 14:04:22 20.7 39 10.4
003C21F6 2018-10-07 11:50:53 20.7 39 10.5
003C21F6 2018-10-07 09:37:15 20.7 39 10.6
003C21F6 2018-10-07 07:23:35 20.9 39 10.7
003C21F6 2018-10-07 06:16:47 20.9 39 10.7
003C21F6 2018-10-07 02:56:16 21 39 10.7
003C21F6 2018-10-07 00:42:35 21 39 10.7
003C21F6 2018-10-06 23:35:47 21 39 10.7
003C21F6 2018-10-06 20:15:18 21 39 10.7
003C21F6 2018-10-06 19:08:30 21 39 10.4
003C21F6 2018-10-06 18:01:44 21 39 10.4
003C21F6 2018-10-06 16:54:56 21 39 10.1
003C21F6 2018-10-06 15:48:10 21 39 10.1
003C21F6 2018-10-06 14:41:24 21 39 10.2
003C21F6 2018-10-06 13:34:37 21 39 10
003C21F6 2018-10-06 12:27:50 21 39 9.9
003C21F6 2018-10-06 09:07:22 21.2 39 10
003C21F6 2018-10-06 08:00:30 21.2 39 17
003C21F6 2018-10-06 06:53:42 21.2 39 16.9
003C21F6 2018-10-06 05:46:55 21.2 39 17.1
003C21F6 2018-10-06 04:40:08 21.2 39 17.1
003C21F6 2018-10-06 03:33:21 21.2 39 17.1
003C21F6 2018-10-06 02:26:35 21.2 39 17.1
003C21F6 2018-10-06 01:19:45 21.2 39 17.1
003C21F6 2018-10-06 00:12:54 21.2 39 17.2
003C21F6 2018-10-05 23:06:05 21.2 39 17.2
003C21F6 2018-10-05 21:59:18 21.2 39 17.2
003C21F6 2018-10-05 18:38:57 21.2 39 17.2
003C21F6 2018-10-05 17:32:10 21.2 38 17.2
003C21F6 2018-10-05 16:25:25 21.2 38 17.3
003C21F6 2018-10-05 15:18:36 21 38 17.3
003C21F6 2018-10-05 13:05:00 21 37 17.3
003C21F6 2018-10-05 10:51:23 20.7 33 17.4
003C21F6 2018-10-05 08:37:48 20.7 32 17.5
003C21F6 2018-10-05 07:30:59 20.7 32 17.6
003C21F6 2018-10-05 06:24:14 20.7 32 18.2
003C21F6 2018-10-05 05:17:24 20.7 32 18.3
003C21F6 2018-10-05 04:10:34 20.8 32 18.3
003C21F6 2018-10-05 03:03:48 20.8 32 19
003C21F6 2018-10-05 01:56:56 20.9 32 19.3
003C21F6 2018-10-04 23:43:19 20.9 32 19.5
003C21F6 2018-10-04 22:36:31 20.9 32 19.5
003C21F6 2018-10-04 21:29:38 20.8 32 17
003C21F6 2018-10-04 18:09:10 20.7 32 17.5
003C21F6 2018-10-04 14:48:39 20.7 32 17.9
003C21F6 2018-10-04 13:41:45 20.7 32 18.4
003C21F6 2018-10-04 12:34:57 20.7 33 18.5
003C21F6 2018-10-04 11:28:06 20.6 33 18.9
003C21F6 2018-10-04 10:21:10 20.5 34 19.3
003C21F6 2018-10-04 09:14:23 20.5 35 19.6
003C21F6 2018-10-04 08:07:31 20.5 36 19.8
003C21F6 2018-10-04 05:53:51 20.5 38 21.3
003C21F6 2018-10-04 04:47:02 20.5 38 21.5
003C21F6 2018-10-04 03:40:12 20.5 38 21.5
003C21F6 2018-10-04 02:33:23 20.6 39 21.7
003C21F6 2018-10-04 00:19:37 20.7 40 21.7
003C21F6 2018-10-03 23:12:46 20.7 40 22
003C21F6 2018-10-03 19:52:14 20.7 41 22
003C21F6 2018-10-03 18:45:26 20.7 41 22.1
003C21F6 2018-10-03 17:38:34 21 42 22.1
003C21F6 2018-10-03 16:31:41 21 43 21.8
003C21F6 2018-10-03 15:24:56 21 43 22
003C21F6 2018-10-03 14:18:08 20.9 42 21.9
003C21F6 2018-10-03 13:11:22 20.7 41 21.6
003C21F6 2018-10-03 12:04:37 20.7 40 21.5
003C21F6 2018-10-03 10:57:46 20.9 40 21.3
003C21F6 2018-10-03 08:44:04 20.5 39 21.3
003C21F6 2018-10-03 07:37:17 20.5 39 21.3
003C21F6 2018-10-03 06:30:33 20.5 40 22.3
003C21F6 2018-10-03 05:23:40 20.5 40 22.1
003C21F6 2018-10-03 04:16:49 20.5 40 21.9
003C21F6 2018-10-03 03:10:02 20.5 40 21.8
003C21F6 2018-10-03 02:03:14 20.6 41 21.7
003C21F6 2018-10-03 00:56:27 20.6 40 21.5
003C21F6 2018-10-02 23:49:40 20.7 40 21.3
003C21F6 2018-10-02 22:42:53 20.7 40 21.3
003C21F6 2018-10-02 21:36:08 20.7 40 19.9
003C21F6 2018-10-02 20:29:23 20.7 40 19.8
003C21F6 2018-10-02 19:22:35 20.7 40 20
003C21F6 2018-10-02 18:15:46 20.9 40 19.7
003C21F6 2018-10-02 17:08:57 21 40 19.8
003C21F6 2018-10-02 16:02:10 21 40 19.5
003C21F6 2018-10-02 14:55:28 21 39 19.5
003C21F6 2018-10-02 13:48:36 20.8 39 19.5
003C21F6 2018-10-02 12:41:44 20.9 41 19.8
003C21F6 2018-10-02 11:34:54 21 43 19.9
003C21F6 2018-10-02 09:21:12 20.7 44 19.8
003C21F6 2018-10-02 08:14:25 20.5 41 20.2
003C21F6 2018-10-02 07:07:34 20.6 43 20.5
003C21F6 2018-10-02 06:00:43 20.6 43 20.8
003C21F6 2018-10-02 03:47:06 20.7 43 21.2
003C21F6 2018-10-02 02:40:19 20.7 43 21.7
003C21F6 2018-10-02 01:33:35 20.7 43 22.2
003C21F6 2018-10-02 00:26:45 20.7 43 14.6
003C21F6 2018-10-01 22:13:14 20.7 43 14.2
003C21F6 2018-10-01 21:06:23 20.7 43 15
003C21F6 2018-10-01 19:59:35 20.7 43 16.1
003C21F6 2018-10-01 18:52:44 20.5 43 14.2
003C21F6 2018-10-01 17:45:52 20.3 44 12.3
003C21F6 2018-10-01 16:38:55 18.6 60 0